FW0274 Weather Reports


time (UTC)temp
C
wind
direction
speed
KPH
gust
KPH
rain 1hr
cm
rain 24hr
cm
rain mn
cm
humidity
%
barometer
mb
20260504081533 11 180 0.0 4.8 0.00 0.00 0.00 62 1011.0
20260504044554 11 190 0.0 8.0 0.00 0.00 0.00 61 1013.2
20260504043057 10 177 1.6 9.7 0.00 0.00 0.00 62 1013.3
20260504041546 10 202 0.0 0.0 0.00 0.00 0.00 67 1013.3
20260504040044 10 126 0.0 3.2 0.00 0.00 0.00 69 1013.5
20260504034542 10 155 0.0 0.0 0.00 0.00 0.00 71 1013.6
20260504033041 9 198 0.0 0.0 0.00 0.00 0.00 72 1013.8
20260504031540 8 215 0.0 0.0 0.00 0.00 0.00 75 1013.7
20260504030038 8 160 0.0 0.0 0.00 0.00 0.00 75 1014.0
20260504024639 8 160 0.0 0.0 0.00 0.00 0.00 74 1014.2
20260504023038 8 160 0.0 0.0 0.00 0.00 0.00 73 1014.2
20260504021536 9 160 0.0 0.0 0.00 0.00 0.00 72 1014.3
20260504020048 9 178 0.0 0.0 0.00 0.00 0.00 72 1014.4
20260504014548 9 214 0.0 0.0 0.00 0.00 0.00 72 1014.4
20260504013043 10 219 0.0 0.0 0.00 0.00 0.00 71 1014.2
20260504011534 10 219 0.0 0.0 0.00 0.00 0.00 70 1014.1
20260504010039 10 219 0.0 0.0 0.00 0.00 0.00 69 1014.1
20260504004541 10 219 0.0 0.0 0.00 0.00 0.00 67 1014.2
20260504003032 10 219 0.0 0.0 0.00 0.00 0.00 65 1014.3
20260504001538 10 200 0.0 8.0 0.00 0.00 0.00 64 1014.7
20260504000030 11 225 3.2 19.3 0.00 0.00 0.00 60 1015.0
20260503234530 11 244 4.8 16.1 0.00 0.00 0.00 57 1014.8
20260503233032 12 174 4.8 16.1 0.00 0.00 0.00 54 1014.8
20260503231528 13 161 6.4 16.1 0.00 0.00 0.00 46 1014.6
20260503230028 13 240 0.0 14.5 0.00 0.00 0.00 41 1014.4
20260503224526 13 232 3.2 20.9 0.00 0.00 0.00 41 1014.4
20260503223024 14 195 0.0 16.1 0.00 0.00 0.00 42 1014.6
20260503221523 14 198 0.0 12.9 0.00 0.00 0.00 43 1014.7
20260503220022 14 194 3.2 14.5 0.00 0.00 0.00 41 1014.8
20260503214522 14 230 1.6 16.1 0.00 0.00 0.00 42 1014.9
20260503213020 14 228 4.8 16.1 0.00 0.00 0.00 40 1015.0
20260503211517 14 240 3.2 16.1 0.00 0.00 0.00 41 1015.1
20260503210017 14 236 3.2 14.5 0.00 0.00 0.00 41 1015.2
20260503204516 14 175 4.8 14.5 0.00 0.00 0.00 41 1015.4
20260503203035 15 203 6.4 16.1 0.00 0.00 0.00 39 1015.5
20260503201513 14 214 1.6 12.9 0.00 0.00 0.00 41 1015.5
20260503200013 14 248 3.2 16.1 0.00 0.00 0.00 41 1015.7
20260503194524 14 316 1.6 14.5 0.00 0.00 0.00 42 1015.9
20260503193009 15 266 0.0 14.5 0.00 0.00 0.00 43 1016.2
20260503191506 15 221 3.2 11.3 0.00 0.00 0.00 42 1016.5
20260503190005 14 198 1.6 11.3 0.00 0.00 0.00 42 1016.6
20260503184502 14 273 3.2 14.5 0.00 0.00 0.00 40 1016.9
20260503183001 14 257 4.8 9.7 0.00 0.00 0.00 43 1017.0
20260503181602 13 223 0.0 14.5 0.00 0.00 0.00 42 1017.3
20260503180056 13 229 1.6 12.9 0.00 0.00 0.00 46 1017.6
20260503174553 13 236 3.2 17.7 0.00 0.00 0.00 44 1017.7
20260503173052 13 236 3.2 14.5 0.00 0.00 0.00 41 1017.9
20260503171549 13 248 4.8 17.7 0.00 0.00 0.00 38 1018.1